Watertown, WI

10:30 AM CDT on July 28, 2017 (GMT -0500)
Watertown Municipal

Weather History for KRYV - October, 2013

Change the Weather History Date:

Tuesday, October 1, 2013

  Actual Average Record
Temperature  
Mean Temperature 64 °F -  
Max Temperature 79 °F 69 °F 89 °F (1971)
Min Temperature 50 °F 45 °F 29 °F (1947)
Growing Degree Days 14 (Base 50)    
Moisture  
Dew Point 56 °F    
Average Humidity 77    
Maximum Humidity 97    
Minimum Humidity 52    
Precipitation  
Precipitation 0.00 in - - ()
Sea Level Pressure  
Sea Level Pressure 29.87 in    
Wind  
Wind Speed 6 mph (SSW)    
Max Wind Speed 17 mph    
Max Gust Speed 24 mph    
Visibility 10 miles    
Events      
Averages and records for this station are not official NWS values.
T = Trace of Precipitation, MM = Missing Value Source: NWS Daily Summary

Daily Weather History Graph

Daily Weather History Graph

Search for Another Location

Airport or City:

Trip Planner

Search our weather history database for the weather conditions in past years. The results will help you decide how hot, cold, wet, or windy it might be!

Date:

Astronomy

Oct. 01, 2013 Rise Set
Actual Time 6:52 AM CDT 6:35 PM CDT
Civil Twilight 6:24 AM CDT 7:03 PM CDT
Nautical Twilight 5:51 AM CDT 7:36 PM CDT
Astronomical Twilight 5:17 AM CDT 8:10 PM CDT
Moon 3:21 AM CDT (10/1) 4:43 PM CDT (10/1)
Length of Visible Light 12h 39m
Length of Day
11h 43m
Waning Crescent, 12% of the Moon is Illuminated
Oct 1
Waning Crescent
Oct 4
New
Oct 11
First Quarter
Oct 18
Full
Oct 26
Last Quarter

Hourly Weather History & Observations

Time (CDT) Temp. Dew Point Humidity Pressure Visibility Wind Dir Wind Speed Gust Speed Precip Events Conditions
12:15 AM 50.2 °F 45.9 °F 85% 29.86 in 10.0 mi Calm Calm - N/A   Clear
12:35 AM 53.6 °F 47.3 °F 79% 29.86 in 10.0 mi Calm Calm - N/A   Clear
12:55 AM 52.9 °F 47.3 °F 81% 29.86 in 10.0 mi Calm Calm - N/A   Clear
1:15 AM 54.9 °F 48.0 °F 78% 29.86 in 10.0 mi South 4.6 mph - N/A   Clear
1:53 AM 53.6 °F 48.2 °F 82% 29.86 in 10.0 mi South 5.8 mph - N/A   Clear
1:55 AM 54.5 °F 48.4 °F 80% 29.86 in 10.0 mi South 5.8 mph - N/A   Clear
2:15 AM 54.7 °F 48.6 °F 80% 29.86 in 10.0 mi South 4.6 mph - N/A   Clear
2:52 AM 53.6 °F 48.2 °F 82% 29.85 in 10.0 mi SSE 3.5 mph - N/A   Clear
3:15 AM 54.5 °F 50.5 °F 86% 29.85 in 10.0 mi South 4.6 mph - N/A   Clear
3:35 AM 56.1 °F 52.2 °F 87% 29.85 in 10.0 mi SSW 8.1 mph - N/A   Clear
3:55 AM 56.7 °F 52.9 °F 87% 29.85 in 10.0 mi SSW 8.1 mph - N/A   Clear
4:15 AM 56.8 °F 53.6 °F 89% 29.85 in 10.0 mi SSW 8.1 mph - N/A   Clear
4:35 AM 57.0 °F 54.0 °F 89% 29.85 in 10.0 mi SSW 5.8 mph - N/A   Clear
4:55 AM 56.7 °F 54.1 °F 91% 29.85 in 10.0 mi South 4.6 mph - N/A   Clear
5:15 AM 56.3 °F 54.5 °F 94% 29.86 in 10.0 mi South 4.6 mph - N/A   Clear
5:35 AM 57.6 °F 55.6 °F 93% 29.85 in 10.0 mi SSW 8.1 mph - N/A   Clear
5:55 AM 58.6 °F 56.3 °F 92% 29.86 in 10.0 mi SSW 10.4 mph - N/A   Clear
6:15 AM 59.4 °F 56.5 °F 90% 29.86 in 10.0 mi SSW 11.5 mph - N/A   Clear
6:35 AM 59.2 °F 56.5 °F 91% 29.86 in 10.0 mi SSW 10.4 mph - N/A   Clear
7:15 AM 59.2 °F 56.7 °F 91% 29.86 in 10.0 mi SSW 10.4 mph - N/A   Clear
7:55 AM 60.3 °F 57.2 °F 90% 29.86 in 10.0 mi South 10.4 mph - N/A   Clear
8:15 AM 61.3 °F 57.9 °F 89% 29.87 in 10.0 mi South 12.7 mph - N/A   Clear
8:35 AM 62.6 °F 58.5 °F 86% 29.87 in 10.0 mi SSW 10.4 mph - N/A   Clear
8:55 AM 63.7 °F 59.0 °F 85% 29.87 in 10.0 mi SSW 11.5 mph 17.3 mph N/A   Clear
9:15 AM 65.3 °F 59.2 °F 81% 29.86 in 10.0 mi SSW 13.8 mph 23.0 mph N/A   Clear
9:35 AM 66.2 °F 59.5 °F 79% 29.86 in 10.0 mi SSW 13.8 mph 18.4 mph N/A   Clear
9:55 AM 67.8 °F 59.9 °F 76% 29.86 in 10.0 mi SSW 10.4 mph 17.3 mph N/A   Clear
10:15 AM 68.4 °F 59.9 °F 74% 29.86 in 10.0 mi SSW 16.1 mph 24.2 mph N/A   Clear
10:35 AM 69.1 °F 60.1 °F 73% 29.86 in 10.0 mi SSW 16.1 mph 21.9 mph N/A   Clear
10:55 AM 69.8 °F 59.9 °F 71% 29.86 in 10.0 mi SSW 16.1 mph - N/A   Clear
11:35 AM 72.5 °F 60.8 °F 67% 29.84 in 10.0 mi SSW 15.0 mph 20.7 mph N/A   Clear
11:55 AM 73.6 °F 60.4 °F 63% 29.84 in 10.0 mi SSW 17.3 mph 20.7 mph N/A   Clear
12:35 PM 75.0 °F 61.0 °F 62% 29.85 in 10.0 mi SW 11.5 mph 21.9 mph N/A   Clear
12:55 PM 76.1 °F 60.6 °F 59% 29.84 in 10.0 mi SW 16.1 mph 23.0 mph N/A   Clear
1:15 PM 76.6 °F 60.6 °F 58% 29.84 in 10.0 mi WSW 13.8 mph 21.9 mph N/A   Clear
1:55 PM 77.5 °F 60.8 °F 56% 29.84 in 10.0 mi SW 15.0 mph 20.7 mph N/A   Clear
2:35 PM 79.0 °F 60.8 °F 54% 29.84 in 10.0 mi SW 15.0 mph 20.7 mph N/A   Clear
2:55 PM 79.2 °F 60.3 °F 52% 29.84 in 10.0 mi WSW 12.7 mph 20.7 mph N/A   Clear
3:55 PM 79.7 °F 60.4 °F 52% 29.84 in 10.0 mi WSW 12.7 mph 20.7 mph N/A   Clear
4:15 PM 79.2 °F 60.3 °F 52% 29.84 in 10.0 mi SW 15.0 mph 19.6 mph N/A   Clear
4:55 PM 78.8 °F 60.1 °F 53% 29.85 in 10.0 mi West 13.8 mph 18.4 mph N/A   Clear
5:15 PM 78.3 °F 59.7 °F 53% 29.86 in 10.0 mi West 10.4 mph - N/A   Clear
5:35 PM 77.5 °F 59.7 °F 54% 29.86 in 10.0 mi West 8.1 mph - N/A   Clear
6:15 PM 74.7 °F 59.4 °F 59% 29.87 in 10.0 mi West 4.6 mph - N/A   Clear
6:35 PM 73.2 °F 59.0 °F 61% 29.88 in 10.0 mi West 3.5 mph - N/A   Clear
7:15 PM 70.3 °F 58.6 °F 66% 29.89 in 10.0 mi West 4.6 mph - N/A   Clear
7:35 PM 69.1 °F 58.6 °F 69% 29.90 in 10.0 mi West 3.5 mph - N/A   Clear
7:55 PM 68.9 °F 58.6 °F 70% 29.90 in 10.0 mi Calm Calm - N/A   Clear
8:15 PM 68.0 °F 58.6 °F 72% 29.91 in 10.0 mi Calm Calm - N/A   Clear
8:35 PM 63.5 °F 56.8 °F 79% 29.91 in 10.0 mi Calm Calm - N/A   Clear
8:55 PM 65.3 °F 58.3 °F 78% 29.91 in 10.0 mi West 3.5 mph - N/A   Clear
9:15 PM 59.4 °F 55.8 °F 88% 29.92 in 10.0 mi Calm Calm - N/A   Clear
9:52 PM 57.2 °F 55.4 °F 94% 29.93 in 10.0 mi Calm Calm - N/A   Clear
10:15 PM 57.4 °F 54.0 °F 88% 29.94 in 10.0 mi Calm Calm - N/A   Clear
10:55 PM 57.2 °F 55.6 °F 94% 29.95 in 10.0 mi Calm Calm - N/A   Clear
11:15 PM 55.4 °F 53.4 °F 93% 29.95 in 10.0 mi Calm Calm - N/A   Clear
11:35 PM 54.1 °F 52.9 °F 95% 29.96 in 7.0 mi Calm Calm - N/A   Clear
11:55 PM 55.2 °F 54.3 °F 97% 29.97 in 3.0 mi Calm Calm - N/A   Clear